ONEWEB-0081 (45429 NORAD) Tracking and Keplerian Element Data

This shows tracking and keplerian element data for the satellite.

Feedback or suggestion? Click here.




ElementValue
Catalog45429
NameONEWEB-0081
Epoch Orbit3218
Epoch Day297.91667824
Epoch Year2020
RAAN71.7705
Inclination87.7881
Eccentricity0.0026824
Argument of Perigee244.6007
Mean Anonmoly277.4193
Mean Motion13.97376235
Decay Rate-0.00021959
L11 45429U 20020F 20297.91667824 -.00021959 00000-0 -15670-1 0 9999
L22 45429 87.7881 71.7705 0026824 244.6007 277.4193 13.97376235 32180

Live tracking and technical data element details for ONEWEB-0081 (NORAD 45429). ONEWEB-0081 can be tracked NOW for your location showing map with azimuth and elevation plus other details from your city location.

Track the satellite on the map from your city or location and see movement details for azimuth, elevation, latitude, longitude, range, height, and movement on the map or in text.







IsCatalogInMostPopularTable: catalog: 45429, numindb: 46
Update: records affected: 1



GetName: 45429 ONEWEB-0081

Hit Count: updated at: Sat, 24 Oct 2020 23:38:19 GMT